DELTA 1 DEB, 13534

Orbit data source: Space-Track

DELTA 1 DEB, 13534 is space debris in LEO originally from a launch on Thu, 29 Jul 1976 UTC launched from the Air Force Western Test Range (AFWTR). Debris objects in space refer to the collection of defunct objects orbiting the Earth. Examples of debris include non-operational satellites, rocket bodies, and fragments generated from explosions, collisions, or faulty payload assembly.

Loading next visibility...
Identifier
13534, 1976-077EG
Orbit
LEO
Country
Flag of USUS
Related business
Manufacturer
Unknown
Mission
Spacecraft
Bus & Motor
Unknown
Mass
Unknown
Launch date (UTC)
1976-07-29 (50 years ago)
Launch vehicle
Unknown
Launch site
Air Force Western Test Range (AFWTR)
Object type
Payload
Rocket body
Debris
Shape & HBR
Unknown shape, 0.1 m
Radar Cross Section
Small (<0.1 m²)

Expand to show TLE details & history
Last TLE update: 1 day ago

TLE from 1 day ago
0 DELTA 1 DEB
1 13534U 76077EG  26120.33484721  .00000148  00000-0  27518-2 0  9994
2 13534 101.8525 240.5968 0396421 276.7565 103.9864 11.68326597 19758
Epoch: 2026-04-30T08:02Z
TLE epoch observation values (Epoch: 2026-04-30T08:02:10.798Z)
Latitude
24.54801°
Longitude
-103.70594°
Altitude
1,919.008 km
Speed
6.896 km/s
True Right ascension
15h 40m 29s
True Declination
24° 26' 11"
Sunlit
Object was in full shadow at epoch
Visualization orbit readout
Latitude
Unknown
Longitude
Unknown
Altitude
Unknown
Speed
Unknown
Apparent Right ascension
Unknown
Apparent Declination
Unknown
Sunlit
N/A
Visualization observer readout
Local Sidereal Time
15:40:00
Azimuth
Unknown
Elevation
Unknown
Doppler factor
Unknown
Orbital elements
Apogee altitude
2,148.65 km
Perigee altitude
1,498.388 km
Semi-major axis
8,201.656 km
Eccentricity
0.03964
Inclination
101.8525°
RAAN
240.5968°
Arg. of periapsis
276.7565°
True anomaly
108.338°
Mean anomaly
103.9864°
Eccentric anomaly
106.16789°
Mean motion
2.92207 °/min
Orbital period
123.2 mins
BSTAR
0.0027518
Loading maneuver chart data...
Computing Atmospheric mass density...
Loading historical data...
Loading historical data...
Loading historical data...
Loading historical data...
Loading historical data...
Loading historical data...
Loading historical data...

Documentation

Showing up to 5 results
|